K4QXN Weather Reports


Display with metric or nautical units.
time (UTC)temp
F
wind
direction
speed
MPH
gust
MPH
rain 1hr
in
rain 24hr
in
rain mn
in
humidity
%
barometer
mb
20260510225220 80 45 0.0 0.0 0.00 0.00 0.00 40 1014.2
20260510224719 80 45 0.0 0.0 0.00 0.00 0.00 38 1014.2
20260510224218 80 45 0.0 0.0 0.00 0.00 0.00 37 1014.2
20260510223716 81 45 0.0 0.0 0.00 0.00 0.00 37 1014.2
20260510223214 83 45 0.0 2.0 0.00 0.00 0.00 36 1014.5
20260510222712 85 45 0.0 0.0 0.00 0.00 0.00 32 1014.2
20260510222211 85 45 0.0 0.0 0.00 0.00 0.00 33 1014.2
20260510221709 85 45 0.0 0.0 0.00 0.00 0.00 32 1013.8
20260510221207 86 45 0.0 0.0 0.00 0.00 0.00 31 1014.2
20260510220706 85 45 0.0 0.0 0.00 0.00 0.00 33 1014.2
20260510220204 84 45 0.0 1.0 0.00 0.00 0.00 32 1014.2
20260510215702 84 45 0.0 1.0 0.00 0.00 0.00 32 1014.2
20260510215200 85 45 0.0 1.0 0.00 0.00 0.00 32 1013.8
20260510214658 85 45 0.0 0.0 0.00 0.00 0.00 30 1014.2
20260510214157 86 45 0.0 0.0 0.00 0.00 0.00 30 1014.2
20260510213655 85 45 0.0 0.0 0.00 0.00 0.00 29 1014.2
20260510213153 86 45 0.0 0.0 0.00 0.00 0.00 27 1014.2
20260510212651 85 45 0.0 1.0 0.00 0.00 0.00 29 1014.2
20260510212150 85 45 1.0 2.0 0.00 0.00 0.00 30 1013.8
20260510211648 86 45 0.0 0.0 0.00 0.00 0.00 30 1014.2
20260510211146 87 45 0.0 0.0 0.00 0.00 0.00 32 1014.2
20260510210644 86 45 0.0 0.0 0.00 0.00 0.00 29 1014.2
20260510210143 87 45 0.0 0.0 0.00 0.00 0.00 29 1013.8
20260510205641 86 45 0.0 0.0 0.00 0.00 0.00 30 1013.8
20260510205139 86 45 2.0 5.0 0.00 0.00 0.00 28 1013.8
20260510204638 85 45 0.0 1.0 0.00 0.00 0.00 31 1014.2
20260510204136 85 45 0.0 0.0 0.00 0.00 0.00 30 1013.8
20260510203634 83 45 3.0 6.0 0.00 0.00 0.00 32 1014.2
20260510203132 83 45 0.0 2.0 0.00 0.00 0.00 32 1014.2
20260510202631 83 45 0.0 0.0 0.00 0.00 0.00 34 1014.2
20260510202129 84 45 4.0 5.0 0.00 0.00 0.00 33 1014.2
20260510201628 86 45 0.0 1.0 0.00 0.00 0.00 33 1014.2
20260510201126 86 45 0.0 0.0 0.00 0.00 0.00 32 1014.2
20260510200624 85 45 2.0 3.0 0.00 0.00 0.00 32 1014.5
20260510200122 85 45 0.0 0.0 0.00 0.00 0.00 35 1014.5
20260510195620 85 45 0.0 0.0 0.00 0.00 0.00 35 1014.2
20260510195119 86 45 0.0 0.0 0.00 0.00 0.00 35 1014.5
20260510194617 86 45 0.0 0.0 0.00 0.00 0.00 33 1014.5
20260510194115 85 45 0.0 2.0 0.00 0.00 0.00 35 1014.5
20260510193614 85 45 0.0 1.0 0.00 0.00 0.00 34 1014.5
20260510193112 84 45 3.0 5.0 0.00 0.00 0.00 33 1014.5
20260510192610 85 45 0.0 0.0 0.00 0.00 0.00 32 1014.5
20260510192109 85 45 0.0 0.0 0.00 0.00 0.00 36 1014.9
20260510191607 84 45 0.0 0.0 0.00 0.00 0.00 34 1014.5
20260510191105 85 45 0.0 0.0 0.00 0.00 0.00 34 1014.9
20260510190604 83 45 0.0 1.0 0.00 0.00 0.00 32 1014.9
20260510185600 83 45 3.0 5.0 0.00 0.00 0.00 33 1014.9
20260510185058 84 45 0.0 1.0 0.00 0.00 0.00 32 1014.9
20260510184556 83 45 0.0 1.0 0.00 0.00 0.00 35 1014.5
20260510184054 83 45 3.0 5.0 0.00 0.00 0.00 32 1014.9
20260510183553 84 45 0.0 1.0 0.00 0.00 0.00 35 1014.9
20260510183051 83 45 2.0 3.0 0.00 0.00 0.00 33 1014.5
20260510182550 84 45 0.0 0.0 0.00 0.00 0.00 33 1014.9
20260510182048 83 45 0.0 0.0 0.00 0.00 0.00 34 1014.9
20260510181546 84 45 1.0 3.0 0.00 0.00 0.00 32 1014.9
20260510181044 83 45 2.0 4.0 0.00 0.00 0.00 34 1014.9
20260510180542 83 45 1.0 2.0 0.00 0.00 0.00 33 1015.2
20260510180041 83 45 1.0 2.0 0.00 0.00 0.00 33 1015.2
20260510175539 81 45 0.0 0.0 0.00 0.00 0.00 34 1015.2
20260510175037 84 45 0.0 0.0 0.00 0.00 0.00 33 1014.9
20260510174535 82 45 0.0 1.0 0.00 0.00 0.00 38 1014.9
20260510174034 81 45 0.0 0.0 0.00 0.00 0.00 37 1015.2
20260510173532 81 45 1.0 2.0 0.00 0.00 0.00 36 1015.2
20260510173030 81 45 0.0 1.0 0.00 0.00 0.00 34 1015.2
20260510172528 82 45 0.0 1.0 0.00 0.00 0.00 35 1015.5
20260510172027 82 45 0.0 0.0 0.00 0.00 0.00 34 1015.5
20260510171525 83 45 0.0 0.0 0.00 0.00 0.00 36 1015.5
20260510171023 82 45 0.0 0.0 0.00 0.00 0.00 36 1015.5
20260510170521 82 45 1.0 2.0 0.00 0.00 0.00 34 1015.5
20260510170019 80 45 0.0 0.0 0.00 0.00 0.00 36 1015.5
20260510165518 81 45 3.0 5.0 0.00 0.00 0.00 36 1015.9
20260510165016 81 45 3.0 5.0 0.00 0.00 0.00 36 1015.9
20260510164514 83 45 0.0 0.0 0.00 0.00 0.00 35 1015.5
20260510164012 82 45 0.0 2.0 0.00 0.00 0.00 37 1015.9
20260510163511 81 45 0.0 0.0 0.00 0.00 0.00 36 1015.5
20260510163009 82 45 1.0 3.0 0.00 0.00 0.00 36 1015.9
20260510162507 82 45 0.0 0.0 0.00 0.00 0.00 40 1015.9
20260510162006 79 45 0.0 2.0 0.00 0.00 0.00 37 1015.9
20260510161504 79 45 3.0 5.0 0.00 0.00 0.00 38 1015.5
20260510161002 79 45 0.0 1.0 0.00 0.00 0.00 39 1015.9
20260510160500 82 45 0.0 0.0 0.00 0.00 0.00 39 1015.9
20260510155959 79 45 0.0 0.0 0.00 0.00 0.00 38 1015.9
20260510155457 79 45 0.0 2.0 0.00 0.00 0.00 38 1015.9
20260510154955 81 45 0.0 1.0 0.00 0.00 0.00 39 1015.5
20260510154453 79 45 0.0 2.0 0.00 0.00 0.00 43 1015.9
20260510153952 78 45 4.0 7.0 0.00 0.00 0.00 42 1015.5
20260510153450 79 45 0.0 0.0 0.00 0.00 0.00 44 1015.9
20260510152948 78 45 3.0 4.0 0.00 0.00 0.00 44 1015.5
20260510152447 80 45 0.0 2.0 0.00 0.00 0.00 45 1015.9
20260510151945 79 45 0.0 0.0 0.00 0.00 0.00 47 1015.5
20260510151443 77 45 0.0 0.0 0.00 0.00 0.00 48 1015.9
20260510150942 77 45 5.0 7.0 0.00 0.00 0.00 46 1015.5
20260510150440 78 45 0.0 0.0 0.00 0.00 0.00 47 1015.5
20260510145938 77 45 1.0 2.0 0.00 0.00 0.00 48 1015.5
20260510145437 77 45 0.0 0.0 0.00 0.00 0.00 48 1015.5
20260510144935 78 45 0.0 0.0 0.00 0.00 0.00 53 1015.9
20260510144433 77 45 2.0 4.0 0.00 0.00 0.00 53 1015.5
20260510143932 76 45 1.0 3.0 0.00 0.00 0.00 54 1015.5
20260510143430 75 45 4.0 6.0 0.00 0.00 0.00 56 1015.5
20260510142929 75 45 1.0 2.0 0.00 0.00 0.00 59 1015.9
20260510142427 77 45 2.0 3.0 0.00 0.00 0.00 54 1015.5
20260510141925 77 45 0.0 0.0 0.00 0.00 0.00 55 1015.5
20260510141424 78 45 0.0 0.0 0.00 0.00 0.00 53 1015.5
20260510140922 76 45 1.0 2.0 0.00 0.00 0.00 53 1015.5
20260510140421 77 45 1.0 3.0 0.00 0.00 0.00 52 1015.5
20260510135919 77 45 1.0 3.0 0.00 0.00 0.00 52 1015.5
20260510135418 77 45 0.0 2.0 0.00 0.00 0.00 55 1015.9
20260510134916 77 45 0.0 2.0 0.00 0.00 0.00 55 1015.5
20260510134414 76 45 0.0 0.0 0.00 0.00 0.00 58 1015.5
20260510133912 74 45 0.0 0.0 0.00 0.00 0.00 61 1015.5
20260510133410 74 45 1.0 2.0 0.00 0.00 0.00 60 1015.5
20260510132909 74 45 0.0 1.0 0.00 0.00 0.00 65 1015.5
20260510132407 74 45 0.0 0.0 0.00 0.00 0.00 67 1015.5
20260510131905 74 45 0.0 2.0 0.00 0.00 0.00 67 1015.5
20260510131404 75 45 0.0 0.0 0.00 0.00 0.00 68 1015.5
20260510130902 73 45 0.0 0.0 0.00 0.00 0.00 70 1015.5
20260510130400 73 45 0.0 0.0 0.00 0.00 0.00 74 1015.2
20260510125858 72 45 0.0 0.0 0.00 0.00 0.00 74 1015.2
20260510125357 72 45 0.0 0.0 0.00 0.00 0.00 77 1015.2
20260510124855 72 45 0.0 0.0 0.00 0.00 0.00 79 1015.5
20260510124353 71 45 0.0 0.0 0.00 0.00 0.00 80 1015.2
20260510123351 71 45 0.0 0.0 0.00 0.00 0.00 78 1014.9
20260510122349 71 45 0.0 0.0 0.00 0.00 0.00 81 1015.2
20260510121847 70 45 0.0 0.0 0.00 0.00 0.00 85 1014.9
20260510121346 68 45 0.0 0.0 0.00 0.00 0.00 86 1014.9
20260510120844 67 45 0.0 0.0 0.00 0.00 0.00 89 1015.2
20260510120343 66 225 0.0 0.0 0.00 0.00 0.00 91 1014.9
20260510115341 65 45 0.0 0.0 0.00 0.00 0.00 96 1014.5
20260510114839 63 68 0.0 0.0 0.00 0.00 0.00 96 1014.5
20260510114337 63 225 0.0 0.0 0.00 0.00 0.00 97 1014.5
20260510113335 62 113 0.0 0.0 0.00 0.00 0.00 98 1014.5
20260510112332 59 23 0.0 0.0 0.00 0.00 0.00 98 1014.2
20260510111330 57 23 0.0 0.0 0.00 0.00 0.00 98 1014.2
20260510110828 56 0 0.0 0.0 0.00 0.00 0.00 98 1014.2
20260510110326 54 0 0.0 0.0 0.00 0.00 0.00 98 1013.8
20260510105825 53 23 0.0 0.0 0.00 0.00 0.00 98 1014.2
20260510105323 53 23 0.0 0.0 0.00 0.00 0.00 98 1013.8
20260510104821 53 0 0.0 0.0 0.00 0.00 0.00 98 1013.8
20260510104319 53 0 0.0 0.0 0.00 0.00 0.00 98 1013.8
20260510103818 53 338 0.0 0.0 0.00 0.00 0.00 98 1013.8
20260510103316 53 270 0.0 0.0 0.00 0.00 0.00 98 1013.8
20260510102814 53 270 0.0 0.0 0.00 0.00 0.00 98 1013.8
20260510102313 53 293 0.0 0.0 0.00 0.00 0.00 98 1013.5
20260510101811 54 248 0.0 0.0 0.00 0.00 0.00 98 1013.5
20260510101309 54 248 0.0 0.0 0.00 0.00 0.00 98 1013.5
20260510100807 54 248 0.0 0.0 0.00 0.00 0.00 98 1013.5
20260510100305 54 248 0.0 0.0 0.00 0.00 0.00 98 1013.5
20260510095804 54 248 0.0 0.0 0.00 0.00 0.00 98 1013.5
20260510094801 54 248 0.0 0.0 0.00 0.00 0.00 98 1012.8
20260510093759 54 248 0.0 0.0 0.00 0.00 0.00 97 1013.2
20260510093258 55 248 0.0 0.0 0.00 0.00 0.00 97 1012.8
20260510092756 55 248 0.0 0.0 0.00 0.00 0.00 97 1013.2
20260510091754 56 0 0.0 0.0 0.00 0.00 0.00 97 1012.8
20260510091252 56 338 0.0 0.0 0.00 0.00 0.00 97 1012.8
20260510090750 56 338 0.0 0.0 0.00 0.00 0.00 97 1012.8
20260510090249 56 248 0.0 0.0 0.00 0.00 0.00 97 1012.5
20260510085747 56 248 0.0 0.0 0.00 0.00 0.00 97 1012.8
20260510085245 57 248 0.0 0.0 0.00 0.00 0.00 97 1012.5
20260510084743 57 225 0.0 0.0 0.00 0.00 0.00 97 1012.1
20260510084242 57 270 0.0 0.0 0.00 0.00 0.00 97 1012.1
20260510082238 57 270 0.0 0.0 0.00 0.00 0.00 97 1012.1
20260510081736 57 0 0.0 0.0 0.00 0.00 0.00 97 1011.8
20260510081234 58 248 0.0 0.0 0.00 0.00 0.00 97 1011.8
20260510080232 58 248 0.0 0.0 0.00 0.00 0.00 97 1011.8
20260510075731 58 0 0.0 0.0 0.00 0.00 0.00 97 1011.8
20260510074728 59 113 0.0 0.0 0.00 0.00 0.00 97 1011.8
20260510074227 59 225 0.0 0.0 0.00 0.00 0.00 97 1012.1
20260510073725 59 248 0.0 0.0 0.00 0.00 0.00 97 1011.8
20260510073224 59 270 0.0 0.0 0.00 0.00 0.00 96 1011.8
20260510072722 59 248 0.0 0.0 0.00 0.00 0.00 96 1011.8
20260510072220 60 248 0.0 0.0 0.00 0.00 0.00 96 1011.8
20260510071718 60 248 0.0 0.0 0.00 0.00 0.00 96 1011.8
20260510071217 60 180 0.0 0.0 0.00 0.00 0.00 96 1011.8
20260510070214 60 225 0.0 0.0 0.00 0.00 0.00 96 1011.8
20260510065713 60 225 0.0 0.0 0.00 0.00 0.00 96 1011.8
20260510065211 60 180 0.0 0.0 0.00 0.00 0.00 96 1011.8
20260510064710 60 225 0.0 0.0 0.00 0.00 0.00 96 1011.8
20260510064208 60 248 0.0 0.0 0.00 0.00 0.00 96 1011.8
20260510063706 60 225 0.0 0.0 0.00 0.00 0.00 96 1011.8
20260510063205 60 203 0.0 0.0 0.00 0.00 0.00 96 1011.8
20260510062703 60 248 0.0 0.0 0.00 0.00 0.00 96 1011.8
20260510062201 60 203 0.0 0.0 0.00 0.00 0.00 96 1011.8
20260510061700 60 203 0.0 0.0 0.00 0.00 0.00 96 1011.8
20260510061158 61 270 0.0 0.0 0.00 0.00 0.00 96 1012.1
20260510060656 61 135 0.0 0.0 0.00 0.00 0.00 95 1011.8
20260510060155 61 225 0.0 0.0 0.00 0.00 0.00 95 1011.8
20260510055153 61 203 0.0 0.0 0.00 0.00 0.00 95 1011.8
20260510054651 61 180 0.0 0.0 0.00 0.00 0.00 95 1011.8
20260510054149 61 315 0.0 0.0 0.00 0.00 0.00 95 1011.8
20260510053647 61 203 0.0 0.0 0.00 0.00 0.00 95 1011.8
20260510053146 61 225 0.0 0.0 0.00 0.00 0.00 95 1011.8
20260510052143 61 248 0.0 0.0 0.00 0.00 0.00 95 1011.8
20260510051641 61 248 0.0 0.0 0.00 0.00 0.00 95 1012.1
20260510051140 61 225 0.0 0.0 0.00 0.00 0.00 95 1012.1
20260510050638 61 180 0.0 0.0 0.00 0.00 0.00 95 1012.1
20260510050137 61 270 0.0 2.0 0.00 0.00 0.00 95 1011.8
20260510045635 61 225 0.0 0.0 0.00 0.00 0.00 95 1011.8
20260510045133 61 248 0.0 0.0 0.00 0.00 0.00 95 1011.8
20260510044632 61 270 0.0 0.0 0.00 0.00 0.00 95 1011.8
20260510044130 61 315 0.0 0.0 0.00 0.00 0.00 95 1011.8
20260510043128 61 248 0.0 0.0 0.00 0.00 0.00 94 1011.8
20260510042626 61 225 0.0 0.0 0.00 0.00 0.00 94 1011.8
20260510042124 61 225 0.0 0.0 0.00 0.00 0.00 94 1011.8
20260510041623 61 203 0.0 0.0 0.00 0.00 0.00 94 1011.8
20260510040120 62 248 0.0 0.0 0.00 0.00 0.00 93 1011.8
20260510035618 62 203 0.0 0.0 0.00 0.00 0.00 93 1012.1
20260510035116 62 225 0.0 0.0 0.00 0.00 0.00 93 1012.1
20260510034614 62 203 0.0 0.0 0.00 0.00 0.00 93 1012.5
20260510034112 62 203 0.0 0.0 0.00 0.00 0.00 93 1012.1
20260510033611 62 225 0.0 0.0 0.00 0.00 0.00 93 1012.1
20260510033109 62 225 0.0 0.0 0.00 0.00 0.00 93 1012.1
20260510032607 62 248 0.0 0.0 0.00 0.00 0.00 93 1012.5
20260510032105 62 248 0.0 0.0 0.00 0.00 0.00 93 1012.5
20260510031604 63 158 0.0 0.0 0.00 0.00 0.00 92 1012.1
20260510031102 63 248 1.0 3.0 0.00 0.00 0.00 92 1012.5
20260510030600 63 248 0.0 0.0 0.00 0.00 0.00 92 1012.1
20260510030058 63 225 0.0 0.0 0.00 0.00 0.00 92 1012.1
20260510025557 63 203 0.0 0.0 0.00 0.00 0.00 92 1011.8
20260510025055 63 248 0.0 0.0 0.00 0.00 0.00 92 1012.1
20260510024554 63 225 0.0 0.0 0.00 0.00 0.00 92 1012.5
20260510024052 63 180 0.0 0.0 0.00 0.00 0.00 93 1012.1
20260510023550 63 248 1.0 2.0 0.00 0.00 0.00 93 1012.1
20260510023049 63 248 0.0 0.0 0.00 0.00 0.00 93 1011.8
20260510022547 62 225 0.0 0.0 0.00 0.00 0.00 93 1012.1
20260510022045 62 270 0.0 0.0 0.00 0.00 0.00 93 1012.1
20260510021544 62 270 0.0 0.0 0.00 0.00 0.00 94 1011.8
20260510021042 62 270 0.0 0.0 0.00 0.00 0.00 93 1011.8
20260510020540 61 248 0.0 0.0 0.00 0.00 0.00 93 1011.8
20260510020038 61 23 0.0 0.0 0.00 0.00 0.00 93 1012.1
20260510015537 62 23 0.0 0.0 0.00 0.00 0.00 92 1011.8
20260510015035 62 45 0.0 0.0 0.00 0.00 0.00 92 1011.8
20260510014032 62 248 0.0 0.0 0.00 0.00 0.00 92 1011.5
20260510012529 62 270 0.0 0.0 0.00 0.00 0.00 91 1011.5
20260510012028 62 68 0.0 0.0 0.00 0.00 0.00 91 1011.5
20260510011526 62 248 0.0 0.0 0.00 0.00 0.00 91 1011.5
20260510011024 63 248 0.0 0.0 0.00 0.00 0.00 90 1011.1
20260510010522 63 248 0.0 0.0 0.00 0.00 0.00 90 1011.1
20260510010021 63 248 0.0 0.0 0.00 0.00 0.00 89 1011.1
20260510005519 63 248 0.0 0.0 0.00 0.00 0.00 89 1011.1
20260510005018 63 248 0.0 0.0 0.00 0.00 0.00 88 1010.8
20260510004015 64 248 0.0 0.0 0.00 0.00 0.00 86 1010.8
20260510003013 65 248 0.0 0.0 0.00 0.00 0.00 84 1010.4
20260510002511 66 248 0.0 0.0 0.00 0.00 0.00 83 1010.4
20260510002009 67 248 0.0 0.0 0.00 0.00 0.00 82 1010.4
20260510001007 67 225 0.0 0.0 0.00 0.00 0.00 81 1010.4
20260510000505 67 225 1.0 2.0 0.00 0.00 0.00 81 1010.1
20260510000003 68 270 0.0 0.0 0.00 0.00 0.00 80 1010.1
20260509235501 68 270 0.0 0.0 0.00 0.00 0.00 79 1010.1
20260509234959 68 225 0.0 0.0 0.00 0.00 0.00 79 1010.1
20260509234458 68 113 0.0 0.0 0.00 0.00 0.00 78 1010.4
20260509233455 69 225 0.0 0.0 0.00 0.00 0.00 78 1010.4
20260509232954 69 225 0.0 1.0 0.00 0.00 0.00 78 1010.1
20260509232452 69 248 0.0 2.0 0.00 0.00 0.00 77 1010.1
20260509231950 69 248 0.0 0.0 0.00 0.00 0.00 77 1010.1
20260509231448 70 225 0.0 0.0 0.00 0.00 0.00 76 1010.1
20260509230947 70 225 0.0 0.0 0.00 0.00 0.00 75 1010.1
20260509230445 70 225 3.0 5.0 0.00 0.00 0.00 74 1010.1
20260509225943 70 225 3.0 5.0 0.00 0.00 0.00 74 1010.1
20260509225442 70 270 3.0 5.0 0.00 0.00 0.00 73 1010.1